Weather History for KDEC - January, 2014

Change the Weather History Date:

Monday, January 13, 2014

  Actual Average Record
Temperature  
Mean Temperature 41 °F 27 °F  
Max Temperature 52 °F 35 °F 22 °F (2015)
Min Temperature 29 °F 19 °F 6 °F (2015)
Degree Days  
Heating Degree Days 24 38  
Month to date heating degree days 493 489  
Since 1 July heating degree days 2768 2628  
Cooling Degree Days 0 0  
Month to date cooling degree days 0 0  
Year to date cooling degree days 0 0  
Moisture  
Dew Point 33 °F    
Average Humidity 68    
Maximum Humidity 85    
Minimum Humidity 50    
Precipitation  
Precipitation 0.00 in 0.05 in 0.00 in (2015)
Month to date precipitation 0.68 0.87  
Year to date precipitation 0.68 0.87  
Sea Level Pressure  
Sea Level Pressure 29.72 in    
Wind  
Wind Speed 13 mph (WSW)    
Max Wind Speed 20 mph    
Max Gust Speed 25 mph    
Visibility 10 miles    
Events      
T = Trace of Precipitation, MM = Missing Value Source: NWS Daily Summary

Daily Weather History Graph

Daily Weather History Graph

Search for Another Location

Airport or City:

Trip Planner

Search our weather history database for the weather conditions in past years. The results will help you decide how hot, cold, wet, or windy it might be!

Date:

Astronomy

Jan. 13, 2014 Rise Set
Actual Time 7:15 AM CST 4:53 PM CST
Civil Twilight 6:45 AM CST 5:22 PM CST
Nautical Twilight 6:12 AM CST 5:56 PM CST
Astronomical Twilight 5:40 AM CST 6:28 PM CST
Moon 3:08 PM CST (1/13) 5:04 AM CST (1/13)
Length of Visible Light 10h 36m
Length of Day
9h 37m
Waxing Gibbous, 95% of the Moon is Illuminated
Jan 13
Waxing Gibbous
Jan 15
Full
Jan 23
Last Quarter
Jan 30
New
Feb 6
First Quarter

Hourly Weather History & Observations

Time (CST) Temp. Windchill Dew Point Humidity Pressure Visibility Wind Dir Wind Speed Gust Speed Precip Events Conditions
12:54 AM 41.0 °F 32.5 °F 32.0 °F 70% 29.68 in 10.0 mi South 17.3 mph - N/A   Clear
1:54 AM 42.1 °F 34.2 °F 32.0 °F 67% 29.67 in 10.0 mi South 16.1 mph - N/A   Clear
2:54 AM 42.1 °F 35.2 °F 33.1 °F 70% 29.66 in 10.0 mi South 12.7 mph - N/A   Clear
3:54 AM 43.0 °F 35.7 °F 33.1 °F 68% 29.64 in 10.0 mi South 15.0 mph - N/A   Clear
4:54 AM 43.0 °F 35.1 °F 34.0 °F 71% 29.62 in 10.0 mi South 17.3 mph - N/A   Clear
5:54 AM 44.1 °F 36.8 °F 34.0 °F 68% 29.61 in 10.0 mi South 16.1 mph - N/A   Clear
6:54 AM 45.0 °F 38.9 °F 35.1 °F 68% 29.61 in 10.0 mi SSW 12.7 mph 20.7 mph N/A   Partly Cloudy
7:54 AM 45.0 °F 38.2 °F 36.0 °F 71% 29.63 in 10.0 mi SSW 15.0 mph - N/A   Clear
8:54 AM 46.0 °F 39.6 °F 37.0 °F 71% 29.66 in 10.0 mi SW 15.0 mph 23.0 mph N/A   Clear
9:54 AM 46.0 °F 39.9 °F 37.0 °F 71% 29.69 in 10.0 mi SW 13.8 mph - N/A   Clear
10:54 AM 48.0 °F - 37.0 °F 66% 29.68 in 10.0 mi WSW 11.5 mph - N/A   Clear
11:54 AM 46.0 °F 41.0 °F 34.0 °F 63% 29.68 in 10.0 mi WSW 10.4 mph - N/A   Partly Cloudy
12:54 PM 51.1 °F - 34.0 °F 52% 29.67 in 10.0 mi West 10.4 mph - N/A   Clear
1:54 PM 51.1 °F - 34.0 °F 52% 29.67 in 10.0 mi West 10.4 mph - N/A   Clear
2:54 PM 52.0 °F - 35.1 °F 53% 29.68 in 10.0 mi WSW 12.7 mph - N/A   Clear
3:54 PM 50.0 °F - 35.1 °F 57% 29.72 in 10.0 mi WNW 17.3 mph 21.9 mph N/A   Clear
4:54 PM 44.1 °F 36.8 °F 34.0 °F 68% 29.76 in 10.0 mi NW 16.1 mph 24.2 mph N/A   Clear
5:54 PM 39.9 °F 32.9 °F 33.1 °F 77% 29.80 in 10.0 mi NW 11.5 mph - N/A   Clear
6:54 PM 36.0 °F 28.5 °F 30.0 °F 79% 29.82 in 10.0 mi WNW 10.4 mph - N/A   Clear
7:54 PM 34.0 °F 26.6 °F 28.9 °F 82% 29.85 in 10.0 mi WNW 9.2 mph - N/A   Clear
8:54 PM 34.0 °F 26.0 °F 28.0 °F 79% 29.84 in 9.0 mi WNW 10.4 mph - N/A   Clear
9:54 PM 32.0 °F 23.6 °F 28.0 °F 85% 29.86 in 10.0 mi West 10.4 mph - N/A   Clear
10:54 PM 30.9 °F 25.2 °F 27.0 °F 85% 29.86 in 10.0 mi West 5.8 mph - N/A   Clear
11:54 PM 28.9 °F 23.9 °F 26.1 °F 89% 29.85 in 10.0 mi West 4.6 mph - N/A   Clear